Saint Bonnet de Bellac- Haute Vienne - France
Donnes mto: mardi, 06/12/2011
Date Horaire Temp. E. Hum. E. P.atmo. Pluie Vent Direction Direction Ensoleilleme Solaire P. de rose Temp au vent Rafales
06/12/2011 00:00 6,6 C 93 % 1015,1 hPa 0,0 mm 5,0 km/h (1 Bft) SO 225 0 min 0 W/m 5,6 C 5,9 C 7,9 km/h (2 Bft)
06/12/2011 00:05 6,6 C 93 % 1015,0 hPa 0,0 mm 8,3 km/h (2 Bft) S-SO 202 0 min 0 W/m 5,6 C 4,9 C 10,4 km/h (2 Bft)
06/12/2011 00:10 6,5 C 93 % 1015,0 hPa 0,0 mm 7,6 km/h (2 Bft) S-SO 202 0 min 0 W/m 5,5 C 5,0 C 7,6 km/h (2 Bft)
06/12/2011 00:15 6,6 C 93 % 1015,0 hPa 0,0 mm 5,8 km/h (2 Bft) SO 225 0 min 0 W/m 5,6 C 5,6 C 10,1 km/h (2 Bft)
06/12/2011 00:20 6,6 C 93 % 1015,0 hPa 0,0 mm 9,0 km/h (2 Bft) O-SO 247 0 min 0 W/m 5,6 C 4,8 C 11,5 km/h (2 Bft)
06/12/2011 00:25 6,6 C 93 % 1015,0 hPa 0,0 mm 5,8 km/h (2 Bft) SO 225 0 min 0 W/m 5,6 C 5,6 C 11,2 km/h (2 Bft)
06/12/2011 00:30 6,6 C 93 % 1015,1 hPa 0,0 mm 3,2 km/h (1 Bft) O-SO 247 0 min 0 W/m 5,6 C 6,6 C 7,6 km/h (2 Bft)
06/12/2011 00:35 6,6 C 93 % 1015,1 hPa 0,0 mm 4,7 km/h (1 Bft) O-SO 247 0 min 0 W/m 5,6 C 6,0 C 7,9 km/h (2 Bft)
06/12/2011 00:40 6,6 C 93 % 1015,2 hPa 0,0 mm 4,7 km/h (1 Bft) S-SO 202 0 min 0 W/m 5,6 C 6,0 C 7,2 km/h (2 Bft)
06/12/2011 00:45 6,6 C 93 % 1015,3 hPa 0,0 mm 4,7 km/h (1 Bft) SO 225 0 min 0 W/m 5,6 C 6,0 C 9,4 km/h (2 Bft)
06/12/2011 00:50 6,6 C 93 % 1015,2 hPa 0,0 mm 2,5 km/h (1 Bft) SO 225 0 min 0 W/m 5,6 C 6,6 C 4,3 km/h (1 Bft)
06/12/2011 00:55 6,6 C 93 % 1015,2 hPa 0,0 mm 6,8 km/h (2 Bft) SO 225 0 min 0 W/m 5,6 C 5,3 C 9,0 km/h (2 Bft)
06/12/2011 01:00 6,5 C 94 % 1015,2 hPa 0,0 mm 3,6 km/h (1 Bft) SO 225 0 min 0 W/m 5,6 C 6,5 C 4,3 km/h (1 Bft)
06/12/2011 01:05 6,6 C 94 % 1015,2 hPa 0,0 mm 5,0 km/h (1 Bft) O-SO 247 0 min 0 W/m 5,7 C 5,9 C 6,1 km/h (2 Bft)
06/12/2011 01:10 6,6 C 94 % 1015,1 hPa 0,0 mm 9,0 km/h (2 Bft) S-SO 202 0 min 0 W/m 5,7 C 4,8 C 14,8 km/h (3 Bft)
06/12/2011 01:15 6,6 C 94 % 1015,2 hPa 0,0 mm 7,2 km/h (2 Bft) S-SO 202 0 min 0 W/m 5,7 C 5,2 C 9,4 km/h (2 Bft)
06/12/2011 01:20 6,6 C 94 % 1015,2 hPa 0,0 mm 6,1 km/h (2 Bft) SO 225 0 min 0 W/m 5,7 C 5,5 C 6,5 km/h (2 Bft)
06/12/2011 01:25 6,7 C 94 % 1015,2 hPa 0,0 mm 4,7 km/h (1 Bft) SO 225 0 min 0 W/m 5,8 C 6,1 C 10,1 km/h (2 Bft)
06/12/2011 01:30 6,8 C 94 % 1015,1 hPa 0,0 mm 6,8 km/h (2 Bft) O-SO 247 0 min 0 W/m 5,9 C 5,6 C 10,8 km/h (2 Bft)
06/12/2011 01:35 6,7 C 94 % 1015,2 hPa 0,0 mm 5,4 km/h (2 Bft) SO 225 0 min 0 W/m 5,8 C 5,9 C 9,4 km/h (2 Bft)
06/12/2011 01:40 6,8 C 94 % 1015,0 hPa 0,0 mm 6,8 km/h (2 Bft) O-SO 247 0 min 0 W/m 5,9 C 5,6 C 13,3 km/h (3 Bft)
06/12/2011 01:45 6,8 C 94 % 1015,0 hPa 0,0 mm 9,0 km/h (2 Bft) SO 225 0 min 0 W/m 5,9 C 5,0 C 15,5 km/h (3 Bft)
06/12/2011 01:50 6,8 C 94 % 1015,0 hPa 0,0 mm 5,4 km/h (2 Bft) S-SO 202 0 min 0 W/m 5,9 C 6,0 C 7,9 km/h (2 Bft)
06/12/2011 01:55 6,8 C 94 % 1015,1 hPa 0,0 mm 2,5 km/h (1 Bft) SO 225 0 min 0 W/m 5,9 C 6,8 C 3,6 km/h (1 Bft)
06/12/2011 02:02 6,8 C 94 % 1015,0 hPa 0,0 mm 6,8 km/h (2 Bft) SO 225 0 min 0 W/m 5,9 C 5,6 C 9,4 km/h (2 Bft)
06/12/2011 02:05 6,8 C 94 % 1015,2 hPa 0,0 mm 3,6 km/h (1 Bft) O-SO 247 0 min 0 W/m 5,9 C 6,8 C 8,6 km/h (2 Bft)
06/12/2011 02:10 6,8 C 94 % 1015,2 hPa 0,0 mm 4,0 km/h (1 Bft) S-SO 202 0 min 0 W/m 5,9 C 6,8 C 6,8 km/h (2 Bft)
06/12/2011 02:15 6,8 C 94 % 1015,0 hPa 0,0 mm 5,0 km/h (1 Bft) SO 225 0 min 0 W/m 5,9 C 6,1 C 10,8 km/h (2 Bft)
06/12/2011 02:20 6,8 C 94 % 1015,0 hPa 0,0 mm 7,6 km/h (2 Bft) S-SO 202 0 min 0 W/m 5,9 C 5,3 C 9,7 km/h (2 Bft)
06/12/2011 02:25 6,8 C 94 % 1014,9 hPa 0,0 mm 6,1 km/h (2 Bft) O-SO 247 0 min 0 W/m 5,9 C 5,8 C 8,6 km/h (2 Bft)
06/12/2011 02:30 6,8 C 95 % 1014,9 hPa 0,0 mm 5,0 km/h (1 Bft) SO 225 0 min 0 W/m 6,1 C 6,1 C 8,3 km/h (2 Bft)
06/12/2011 02:35 6,9 C 95 % 1015,0 hPa 0,0 mm 6,1 km/h (2 Bft) SO 225 0 min 0 W/m 6,2 C 5,9 C 8,3 km/h (2 Bft)
06/12/2011 02:40 6,8 C 94 % 1015,1 hPa 0,0 mm 8,6 km/h (2 Bft) SO 225 0 min 0 W/m 5,9 C 5,1 C 8,6 km/h (2 Bft)
06/12/2011 02:45 6,8 C 95 % 1015,3 hPa 0,0 mm 4,7 km/h (1 Bft) S-SE 157 0 min 0 W/m 6,1 C 6,2 C 6,8 km/h (2 Bft)
06/12/2011 02:50 6,8 C 95 % 1015,2 hPa 0,0 mm 1,1 km/h (1 Bft) SO 225 0 min 0 W/m 6,1 C 6,8 C 4,0 km/h (1 Bft)
06/12/2011 02:55 6,8 C 94 % 1015,4 hPa 0,0 mm 1,1 km/h (1 Bft) O 270 0 min 0 W/m 5,9 C 6,8 C 1,1 km/h (1 Bft)
06/12/2011 03:00 6,8 C 94 % 1015,4 hPa 0,0 mm 3,2 km/h (1 Bft) O-SO 247 0 min 0 W/m 5,9 C 6,8 C 7,2 km/h (2 Bft)
06/12/2011 03:05 6,8 C 94 % 1015,5 hPa 0,0 mm 3,6 km/h (1 Bft) SO 225 0 min 0 W/m 5,9 C 6,8 C 6,5 km/h (2 Bft)
06/12/2011 03:10 6,8 C 94 % 1015,5 hPa 0,0 mm 0,0 km/h (0 Bft) O-SO 247 0 min 0 W/m 5,9 C 6,8 C 3,2 km/h (1 Bft)
06/12/2011 03:15 6,8 C 94 % 1015,6 hPa 0,0 mm 2,9 km/h (1 Bft) O-SO 247 0 min 0 W/m 5,9 C 6,8 C 3,6 km/h (1 Bft)
06/12/2011 03:20 6,8 C 94 % 1015,7 hPa 0,0 mm 0,0 km/h (0 Bft) O-SO 247 0 min 0 W/m 5,9 C 6,8 C 3,2 km/h (1 Bft)
06/12/2011 03:25 6,8 C 94 % 1015,7 hPa 0,0 mm 0,0 km/h (0 Bft) O-SO 247 0 min 0 W/m 5,9 C 6,8 C 0,0 km/h (0 Bft)
06/12/2011 03:30 6,8 C 94 % 1015,7 hPa 0,0 mm 1,8 km/h (1 Bft) O-SO 247 0 min 0 W/m 5,9 C 6,8 C 4,3 km/h (1 Bft)
06/12/2011 03:35 6,8 C 94 % 1015,7 hPa 0,0 mm 0,0 km/h (0 Bft) SO 225 0 min 0 W/m 5,9 C 6,8 C 3,2 km/h (1 Bft)
06/12/2011 03:40 6,8 C 94 % 1015,7 hPa 0,0 mm 0,7 km/h (0 Bft) O-SO 247 0 min 0 W/m 5,9 C 6,8 C 3,2 km/h (1 Bft)
06/12/2011 03:45 6,8 C 94 % 1015,6 hPa 0,0 mm 0,4 km/h (0 Bft) O-SO 247 0 min 0 W/m 5,9 C 6,8 C 2,9 km/h (1 Bft)
06/12/2011 03:50 6,7 C 94 % 1015,6 hPa 0,0 mm 1,1 km/h (1 Bft) S-SO 202 0 min 0 W/m 5,8 C 6,7 C 3,6 km/h (1 Bft)
06/12/2011 03:55 6,7 C 94 % 1015,5 hPa 0,0 mm 4,7 km/h (1 Bft) O-SO 247 0 min 0 W/m 5,8 C 6,1 C 4,7 km/h (1 Bft)
06/12/2011 04:00 6,7 C 94 % 1015,3 hPa 0,0 mm 2,9 km/h (1 Bft) SO 225 0 min 0 W/m 5,8 C 6,7 C 4,3 km/h (1 Bft)
06/12/2011 04:05 6,6 C 94 % 1015,2 hPa 0,0 mm 3,2 km/h (1 Bft) SO 225 0 min 0 W/m 5,7 C 6,6 C 7,6 km/h (2 Bft)
06/12/2011 04:10 6,6 C 94 % 1015,1 hPa 0,0 mm 3,2 km/h (1 Bft) O-SO 247 0 min 0 W/m 5,7 C 6,6 C 3,2 km/h (1 Bft)
06/12/2011 04:15 6,6 C 94 % 1015,2 hPa 0,0 mm 5,4 km/h (2 Bft) SO 225 0 min 0 W/m 5,7 C 5,8 C 7,9 km/h (2 Bft)
06/12/2011 04:20 6,6 C 94 % 1015,1 hPa 0,0 mm 2,5 km/h (1 Bft) SO 225 0 min 0 W/m 5,7 C 6,6 C 3,6 km/h (1 Bft)
06/12/2011 04:25 6,6 C 94 % 1015,1 hPa 0,0 mm 5,4 km/h (2 Bft) SO 225 0 min 0 W/m 5,7 C 5,8 C 9,0 km/h (2 Bft)
06/12/2011 04:30 6,6 C 94 % 1015,2 hPa 0,0 mm 6,1 km/h (2 Bft) SO 225 0 min 0 W/m 5,7 C 5,5 C 10,1 km/h (2 Bft)
06/12/2011 04:35 6,6 C 94 % 1015,1 hPa 0,0 mm 6,1 km/h (2 Bft) N 360 0 min 0 W/m 5,7 C 5,5 C 6,1 km/h (2 Bft)
06/12/2011 04:40 6,6 C 94 % 1015,0 hPa 0,0 mm 7,6 km/h (2 Bft) SO 225 0 min 0 W/m 5,7 C 5,1 C 9,7 km/h (2 Bft)
06/12/2011 04:45 6,6 C 94 % 1015,0 hPa 0,0 mm 6,5 km/h (2 Bft) SO 225 0 min 0 W/m 5,7 C 5,4 C 7,9 km/h (2 Bft)
06/12/2011 04:50 6,5 C 94 % 1015,0 hPa 0,0 mm 4,3 km/h (1 Bft) SO 225 0 min 0 W/m 5,6 C 6,5 C 4,3 km/h (1 Bft)
06/12/2011 04:55 6,5 C 94 % 1015,1 hPa 0,0 mm 5,0 km/h (1 Bft) SO 225 0 min 0 W/m 5,6 C 5,8 C 10,4 km/h (2 Bft)
06/12/2011 05:00 6,5 C 94 % 1015,2 hPa 0,0 mm 7,6 km/h (2 Bft) SO 225 0 min 0 W/m 5,6 C 5,0 C 14,4 km/h (3 Bft)
06/12/2011 05:05 6,5 C 94 % 1015,3 hPa 0,0 mm 5,4 km/h (2 Bft) SO 225 0 min 0 W/m 5,6 C 5,6 C 7,9 km/h (2 Bft)
06/12/2011 05:10 6,5 C 94 % 1015,3 hPa 0,0 mm 5,0 km/h (1 Bft) SO 225 0 min 0 W/m 5,6 C 5,8 C 6,5 km/h (2 Bft)
06/12/2011 05:15 6,5 C 94 % 1015,2 hPa 0,0 mm 9,4 km/h (2 Bft) SO 225 0 min 0 W/m 5,6 C 4,6 C 9,4 km/h (2 Bft)
06/12/2011 05:20 6,5 C 94 % 1015,3 hPa 0,0 mm 4,7 km/h (1 Bft) S-SO 202 0 min 0 W/m 5,6 C 5,9 C 7,6 km/h (2 Bft)
06/12/2011 05:25 6,5 C 94 % 1015,3 hPa 0,0 mm 6,5 km/h (2 Bft) SO 225 0 min 0 W/m 5,6 C 5,3 C 11,2 km/h (2 Bft)
06/12/2011 05:30 6,5 C 94 % 1015,4 hPa 0,0 mm 6,1 km/h (2 Bft) SO 225 0 min 0 W/m 5,6 C 5,4 C 8,3 km/h (2 Bft)
06/12/2011 05:35 6,4 C 94 % 1015,4 hPa 0,0 mm 2,2 km/h (1 Bft) SO 225 0 min 0 W/m 5,5 C 6,4 C 4,0 km/h (1 Bft)
06/12/2011 05:40 6,4 C 94 % 1015,5 hPa 0,0 mm 3,2 km/h (1 Bft) O-SO 247 0 min 0 W/m 5,5 C 6,4 C 10,8 km/h (2 Bft)
06/12/2011 05:45 6,3 C 94 % 1015,5 hPa 0,0 mm 5,4 km/h (2 Bft) SO 225 0 min 0 W/m 5,4 C 5,4 C 11,2 km/h (2 Bft)
06/12/2011 05:50 6,3 C 94 % 1015,6 hPa 0,0 mm 5,0 km/h (1 Bft) SO 225 0 min 0 W/m 5,4 C 5,6 C 9,4 km/h (2 Bft)
06/12/2011 05:55 6,3 C 94 % 1015,5 hPa 0,0 mm 3,2 km/h (1 Bft) SO 225 0 min 0 W/m 5,4 C 6,3 C 4,3 km/h (1 Bft)
06/12/2011 06:00 6,3 C 94 % 1015,5 hPa 0,0 mm 5,0 km/h (1 Bft) SO 225 0 min 0 W/m 5,4 C 5,6 C 7,6 km/h (2 Bft)
06/12/2011 06:05 6,3 C 95 % 1015,4 hPa 0,0 mm 4,3 km/h (1 Bft) SO 225 0 min 0 W/m 5,6 C 6,3 C 10,4 km/h (2 Bft)
06/12/2011 06:10 6,3 C 95 % 1015,3 hPa 0,0 mm 4,0 km/h (1 Bft) SO 225 0 min 0 W/m 5,6 C 6,3 C 7,2 km/h (2 Bft)
06/12/2011 06:15 6,3 C 95 % 1015,2 hPa 0,0 mm 1,1 km/h (1 Bft) O-SO 247 0 min 0 W/m 5,6 C 6,3 C 4,0 km/h (1 Bft)
06/12/2011 06:20 6,3 C 95 % 1015,2 hPa 0,0 mm 5,4 km/h (2 Bft) SO 225 0 min 0 W/m 5,6 C 5,4 C 10,1 km/h (2 Bft)
06/12/2011 06:25 6,3 C 95 % 1015,3 hPa 0,0 mm 2,5 km/h (1 Bft) SO 225 0 min 0 W/m 5,6 C 6,3 C 6,8 km/h (2 Bft)
06/12/2011 06:30 6,3 C 95 % 1015,5 hPa 0,0 mm 4,3 km/h (1 Bft) SO 225 0 min 0 W/m 5,6 C 6,3 C 8,6 km/h (2 Bft)
06/12/2011 06:35 6,3 C 95 % 1015,4 hPa 0,0 mm 4,0 km/h (1 Bft) SO 225 0 min 0 W/m 5,6 C 6,3 C 4,0 km/h (1 Bft)
06/12/2011 06:40 6,3 C 95 % 1015,5 hPa 0,0 mm 5,0 km/h (1 Bft) SO 225 0 min 0 W/m 5,6 C 5,6 C 12,2 km/h (2 Bft)
06/12/2011 06:45 6,2 C 95 % 1015,3 hPa 0,0 mm 5,8 km/h (2 Bft) SO 225 0 min 0 W/m 5,5 C 5,2 C 9,4 km/h (2 Bft)
06/12/2011 06:50 6,2 C 95 % 1015,4 hPa 0,0 mm 2,2 km/h (1 Bft) SO 225 0 min 0 W/m 5,5 C 6,2 C 3,2 km/h (1 Bft)
06/12/2011 06:55 6,2 C 95 % 1015,3 hPa 0,0 mm 5,4 km/h (2 Bft) S-SO 202 0 min 0 W/m 5,5 C 5,3 C 5,4 km/h (2 Bft)
06/12/2011 07:00 6,3 C 95 % 1015,3 hPa 0,0 mm 5,4 km/h (2 Bft) S-SO 202 0 min 0 W/m 5,6 C 5,4 C 9,7 km/h (2 Bft)
06/12/2011 07:05 6,3 C 95 % 1015,6 hPa 0,0 mm 3,6 km/h (1 Bft) O-SO 247 0 min 0 W/m 5,6 C 6,3 C 7,2 km/h (2 Bft)
06/12/2011 07:10 6,3 C 95 % 1015,7 hPa 0,0 mm 3,2 km/h (1 Bft) SO 225 0 min 0 W/m 5,6 C 6,3 C 6,8 km/h (2 Bft)
06/12/2011 07:15 6,3 C 95 % 1015,8 hPa 0,0 mm 9,0 km/h (2 Bft) SO 225 0 min 0 W/m 5,6 C 4,4 C 13,7 km/h (3 Bft)
06/12/2011 07:20 6,4 C 95 % 1015,8 hPa 0,0 mm 4,3 km/h (1 Bft) S-SO 202 0 min 0 W/m 5,7 C 6,4 C 9,7 km/h (2 Bft)
06/12/2011 07:25 6,4 C 95 % 1015,7 hPa 0,0 mm 3,2 km/h (1 Bft) SO 225 0 min 0 W/m 5,7 C 6,4 C 6,5 km/h (2 Bft)
06/12/2011 07:30 6,4 C 95 % 1015,8 hPa 0,0 mm 6,1 km/h (2 Bft) SO 225 0 min 0 W/m 5,7 C 5,3 C 7,2 km/h (2 Bft)
06/12/2011 07:35 6,4 C 95 % 1015,8 hPa 0,0 mm 4,0 km/h (1 Bft) SO 225 0 min 0 W/m 5,7 C 6,4 C 4,0 km/h (1 Bft)
06/12/2011 07:40 6,4 C 95 % 1015,7 hPa 0,0 mm 5,8 km/h (2 Bft) O-SO 247 0 min 0 W/m 5,7 C 5,4 C 9,7 km/h (2 Bft)
06/12/2011 07:45 6,4 C 95 % 1015,9 hPa 0,0 mm 6,8 km/h (2 Bft) O-SO 247 0 min 0 W/m 5,7 C 5,1 C 6,8 km/h (2 Bft)
06/12/2011 07:50 6,4 C 95 % 1016,0 hPa 0,0 mm 4,3 km/h (1 Bft) O-SO 247 0 min 0 W/m 5,7 C 6,4 C 7,9 km/h (2 Bft)
06/12/2011 07:55 6,4 C 95 % 1016,1 hPa 0,0 mm 0,7 km/h (0 Bft) O-SO 247 0 min 0 W/m 5,7 C 6,4 C 3,2 km/h (1 Bft)
06/12/2011 08:00 6,4 C 95 % 1016,0 hPa 0,0 mm 3,2 km/h (1 Bft) S-SO 202 0 min 0 W/m 5,7 C 6,4 C 4,0 km/h (1 Bft)
06/12/2011 08:05 6,4 C 95 % 1016,0 hPa 0,0 mm 5,0 km/h (1 Bft) S-SO 202 0 min 0 W/m 5,7 C 5,7 C 8,3 km/h (2 Bft)
06/12/2011 08:10 6,4 C 95 % 1016,1 hPa 0,0 mm 2,5 km/h (1 Bft) S-SO 202 0 min 0 W/m 5,7 C 6,4 C 7,6 km/h (2 Bft)
06/12/2011 08:15 6,4 C 95 % 1016,1 hPa 0,0 mm 3,2 km/h (1 Bft) O-SO 247 0 min 0 W/m 5,7 C 6,4 C 3,2 km/h (1 Bft)
06/12/2011 08:20 6,4 C 95 % 1016,2 hPa 0,0 mm 4,3 km/h (1 Bft) S-SO 202 0 min 0 W/m 5,7 C 6,4 C 7,6 km/h (2 Bft)
06/12/2011 08:25 6,4 C 95 % 1016,3 hPa 0,0 mm 3,2 km/h (1 Bft) SO 225 0 min 0 W/m 5,7 C 6,4 C 8,6 km/h (2 Bft)
06/12/2011 08:30 6,5 C 95 % 1016,3 hPa 0,0 mm 2,9 km/h (1 Bft) SO 225 0 min 0 W/m 5,8 C 6,5 C 6,1 km/h (2 Bft)
06/12/2011 08:35 6,5 C 95 % 1016,3 hPa 0,0 mm 5,4 km/h (2 Bft) O-SO 247 0 min 0 W/m 5,8 C 5,6 C 8,6 km/h (2 Bft)
06/12/2011 08:40 6,5 C 95 % 1016,4 hPa 0,0 mm 4,3 km/h (1 Bft) SO 225 0 min 0 W/m 5,8 C 6,5 C 6,8 km/h (2 Bft)
06/12/2011 08:45 6,5 C 95 % 1016,5 hPa 0,0 mm 5,4 km/h (2 Bft) O-SO 247 0 min 0 W/m 5,8 C 5,6 C 8,3 km/h (2 Bft)
06/12/2011 08:50 6,5 C 95 % 1016,6 hPa 0,0 mm 5,4 km/h (2 Bft) O-SO 247 0 min 0 W/m 5,8 C 5,6 C 5,4 km/h (2 Bft)
06/12/2011 08:55 6,6 C 95 % 1016,6 hPa 0,0 mm 4,0 km/h (1 Bft) SO 225 0 min 0 W/m 5,9 C 6,6 C 6,8 km/h (2 Bft)
06/12/2011 09:00 6,6 C 94 % 1016,6 hPa 0,0 mm 7,2 km/h (2 Bft) S-SO 202 0 min 0 W/m 5,7 C 5,2 C 9,0 km/h (2 Bft)
06/12/2011 09:05 6,6 C 94 % 1016,6 hPa 0,0 mm 8,3 km/h (2 Bft) O-SO 247 0 min 0 W/m 5,7 C 4,9 C 8,3 km/h (2 Bft)
06/12/2011 09:10 6,6 C 94 % 1016,6 hPa 0,0 mm 5,8 km/h (2 Bft) SO 225 0 min 0 W/m 5,7 C 5,6 C 8,3 km/h (2 Bft)
06/12/2011 09:15 6,6 C 94 % 1016,6 hPa 0,0 mm 11,5 km/h (2 Bft) SO 225 0 min 0 W/m 5,7 C 4,3 C 14,8 km/h (3 Bft)
06/12/2011 09:20 6,6 C 94 % 1016,7 hPa 0,0 mm 3,2 km/h (1 Bft) O-SO 247 0 min 0 W/m 5,7 C 6,6 C 6,1 km/h (2 Bft)
06/12/2011 09:25 6,6 C 94 % 1016,7 hPa 0,0 mm 3,2 km/h (1 Bft) S-SO 202 0 min 0 W/m 5,7 C 6,6 C 6,1 km/h (2 Bft)
06/12/2011 09:30 6,6 C 94 % 1016,7 hPa 0,0 mm 6,1 km/h (2 Bft) SO 225 0 min 0 W/m 5,7 C 5,5 C 6,8 km/h (2 Bft)
06/12/2011 09:35 6,6 C 94 % 1016,7 hPa 0,0 mm 6,1 km/h (2 Bft) SO 225 0 min 0 W/m 5,7 C 5,5 C 8,3 km/h (2 Bft)
06/12/2011 09:40 6,6 C 94 % 1016,7 hPa 0,1 mm 7,2 km/h (2 Bft) SO 225 0 min 0 W/m 5,7 C 5,2 C 9,7 km/h (2 Bft)
06/12/2011 09:45 6,7 C 94 % 1016,8 hPa 0,0 mm 9,0 km/h (2 Bft) S-SO 202 0 min 0 W/m 5,8 C 4,9 C 11,5 km/h (2 Bft)
06/12/2011 09:50 6,8 C 94 % 1016,8 hPa 0,0 mm 7,6 km/h (2 Bft) O-SO 247 0 min 0 W/m 5,9 C 5,3 C 13,7 km/h (3 Bft)
06/12/2011 09:55 6,8 C 94 % 1016,9 hPa 0,0 mm 5,4 km/h (2 Bft) O-SO 247 0 min 0 W/m 5,9 C 6,0 C 11,9 km/h (2 Bft)
06/12/2011 10:00 6,8 C 94 % 1016,9 hPa 0,0 mm 4,3 km/h (1 Bft) SO 225 0 min 0 W/m 5,9 C 6,8 C 7,2 km/h (2 Bft)
06/12/2011 10:05 6,9 C 94 % 1016,8 hPa 0,0 mm 11,9 km/h (2 Bft) SO 225 0 min 0 W/m 6,0 C 4,6 C 15,1 km/h (3 Bft)
06/12/2011 10:10 6,9 C 95 % 1016,8 hPa 0,0 mm 7,9 km/h (2 Bft) SO 225 0 min 0 W/m 6,2 C 5,4 C 13,3 km/h (3 Bft)
06/12/2011 10:15 7,1 C 95 % 1016,9 hPa 0,0 mm 10,1 km/h (2 Bft) SO 225 0 min 0 W/m 6,4 C 5,1 C 13,0 km/h (3 Bft)
06/12/2011 10:20 7,1 C 95 % 1017,0 hPa 0,0 mm 8,6 km/h (2 Bft) S-SO 202 0 min 0 W/m 6,4 C 5,5 C 12,2 km/h (2 Bft)
06/12/2011 10:25 7,1 C 95 % 1017,0 hPa 0,0 mm 9,7 km/h (2 Bft) O-SO 247 0 min 0 W/m 6,4 C 5,2 C 15,8 km/h (3 Bft)
06/12/2011 10:30 7,3 C 95 % 1017,1 hPa 0,0 mm 1,8 km/h (1 Bft) S-SO 202 0 min 0 W/m 6,6 C 7,3 C 3,6 km/h (1 Bft)
06/12/2011 10:35 7,3 C 95 % 1017,1 hPa 0,0 mm 6,8 km/h (2 Bft) SO 225 0 min 0 W/m 6,6 C 6,1 C 9,4 km/h (2 Bft)
06/12/2011 10:40 7,3 C 95 % 1017,2 hPa 0,0 mm 4,3 km/h (1 Bft) S-SO 202 0 min 0 W/m 6,6 C 7,3 C 4,3 km/h (1 Bft)
06/12/2011 10:45 7,4 C 95 % 1017,3 hPa 0,0 mm 9,4 km/h (2 Bft) O-SO 247 0 min 0 W/m 6,7 C 5,6 C 11,9 km/h (2 Bft)
06/12/2011 10:50 7,4 C 94 % 1017,3 hPa 0,0 mm 6,1 km/h (2 Bft) S-SO 202 0 min 0 W/m 6,5 C 6,5 C 6,1 km/h (2 Bft)
06/12/2011 10:55 7,4 C 94 % 1017,3 hPa 0,0 mm 5,0 km/h (1 Bft) SO 225 0 min 0 W/m 6,5 C 6,8 C 6,8 km/h (2 Bft)
06/12/2011 11:00 7,4 C 94 % 1017,3 hPa 0,0 mm 5,0 km/h (1 Bft) S-SO 202 0 min 0 W/m 6,5 C 6,8 C 8,6 km/h (2 Bft)
06/12/2011 11:05 7,4 C 94 % 1017,4 hPa 0,0 mm 5,0 km/h (1 Bft) SO 225 0 min 0 W/m 6,5 C 6,8 C 5,0 km/h (1 Bft)
06/12/2011 11:10 7,4 C 94 % 1017,5 hPa 0,0 mm 5,0 km/h (1 Bft) SO 225 0 min 0 W/m 6,5 C 6,8 C 5,0 km/h (1 Bft)
06/12/2011 11:15 7,4 C 94 % 1017,6 hPa 0,0 mm 8,3 km/h (2 Bft) SO 225 0 min 0 W/m 6,5 C 5,9 C 11,5 km/h (2 Bft)
06/12/2011 11:20 7,5 C 94 % 1017,5 hPa 0,0 mm 5,4 km/h (2 Bft) S-SO 202 0 min 0 W/m 6,6 C 6,8 C 8,6 km/h (2 Bft)
06/12/2011 11:25 7,5 C 94 % 1017,6 hPa 0,0 mm 5,0 km/h (1 Bft) S-SO 202 0 min 0 W/m 6,6 C 6,9 C 8,6 km/h (2 Bft)
06/12/2011 11:30 7,5 C 93 % 1017,5 hPa 0,0 mm 5,8 km/h (2 Bft) SO 225 0 min 0 W/m 6,4 C 6,7 C 8,3 km/h (2 Bft)
06/12/2011 11:35 7,5 C 93 % 1017,5 hPa 0,0 mm 4,0 km/h (1 Bft) SO 225 0 min 0 W/m 6,4 C 7,5 C 12,6 km/h (3 Bft)
06/12/2011 11:40 7,6 C 93 % 1017,5 hPa 0,0 mm 5,0 km/h (1 Bft) SO 225 0 min 0 W/m 6,5 C 7,0 C 5,0 km/h (1 Bft)
06/12/2011 11:45 7,6 C 93 % 1017,6 hPa 0,0 mm 4,7 km/h (1 Bft) S-SO 202 0 min 0 W/m 6,5 C 7,1 C 6,5 km/h (2 Bft)
06/12/2011 11:50 7,7 C 93 % 1017,6 hPa 0,0 mm 7,2 km/h (2 Bft) SO 225 0 min 0 W/m 6,6 C 6,5 C 7,2 km/h (2 Bft)
06/12/2011 11:55 7,8 C 93 % 1017,5 hPa 0,0 mm 7,2 km/h (2 Bft) SO 225 0 min 0 W/m 6,7 C 6,6 C 9,0 km/h (2 Bft)
06/12/2011 12:00 7,8 C 93 % 1017,4 hPa 0,0 mm 2,2 km/h (1 Bft) O 270 0 min 0 W/m 6,7 C 7,8 C 6,5 km/h (2 Bft)
06/12/2011 12:05 7,9 C 93 % 1017,3 hPa 0,0 mm 4,7 km/h (1 Bft) SO 225 0 min 0 W/m 6,8 C 7,5 C 9,7 km/h (2 Bft)
06/12/2011 12:10 7,9 C 92 % 1017,3 hPa 0,0 mm 9,7 km/h (2 Bft) O-SO 247 0 min 0 W/m 6,7 C 6,2 C 10,4 km/h (2 Bft)
06/12/2011 12:15 8,0 C 92 % 1017,3 hPa 0,0 mm 8,6 km/h (2 Bft) O-SO 247 0 min 0 W/m 6,8 C 6,5 C 10,8 km/h (2 Bft)
06/12/2011 12:20 8,1 C 92 % 1017,2 hPa 0,0 mm 2,2 km/h (1 Bft) S-SO 202 0 min 0 W/m 6,9 C 8,1 C 6,1 km/h (2 Bft)
06/12/2011 12:25 8,1 C 92 % 1017,1 hPa 0,0 mm 3,6 km/h (1 Bft) O-SO 247 0 min 0 W/m 6,9 C 8,1 C 6,1 km/h (2 Bft)
06/12/2011 12:30 8,1 C 92 % 1017,1 hPa 0,0 mm 7,2 km/h (2 Bft) O-SO 247 0 min 0 W/m 6,9 C 7,0 C 10,1 km/h (2 Bft)
06/12/2011 12:35 8,1 C 91 % 1017,0 hPa 0,0 mm 3,2 km/h (1 Bft) O-SO 247 0 min 0 W/m 6,7 C 8,1 C 8,3 km/h (2 Bft)
06/12/2011 12:40 8,2 C 91 % 1017,0 hPa 0,0 mm 7,6 km/h (2 Bft) O-SO 247 0 min 0 W/m 6,8 C 7,0 C 9,4 km/h (2 Bft)
06/12/2011 12:45 8,2 C 91 % 1016,8 hPa 0,0 mm 6,8 km/h (2 Bft) SO 225 0 min 0 W/m 6,8 C 7,2 C 6,8 km/h (2 Bft)
06/12/2011 12:50 8,2 C 91 % 1016,9 hPa 0,0 mm 5,8 km/h (2 Bft) S-SO 202 0 min 0 W/m 6,8 C 7,5 C 7,2 km/h (2 Bft)
06/12/2011 12:55 8,3 C 91 % 1017,0 hPa 0,0 mm 5,8 km/h (2 Bft) O-SO 247 0 min 0 W/m 6,9 C 7,6 C 11,9 km/h (2 Bft)
06/12/2011 13:00 8,3 C 91 % 1017,0 hPa 0,0 mm 3,2 km/h (1 Bft) O-SO 247 0 min 0 W/m 6,9 C 8,3 C 8,6 km/h (2 Bft)
06/12/2011 13:05 8,4 C 91 % 1016,7 hPa 0,0 mm 3,2 km/h (1 Bft) O-SO 247 0 min 0 W/m 7,0 C 8,4 C 8,3 km/h (2 Bft)
06/12/2011 13:10 8,4 C 90 % 1016,7 hPa 0,0 mm 5,0 km/h (1 Bft) SO 225 0 min 0 W/m 6,9 C 7,9 C 9,4 km/h (2 Bft)
06/12/2011 13:15 8,4 C 90 % 1016,8 hPa 0,0 mm 3,6 km/h (1 Bft) SO 225 0 min 0 W/m 6,9 C 8,4 C 6,8 km/h (2 Bft)
06/12/2011 13:20 8,4 C 90 % 1016,7 hPa 0,0 mm 4,3 km/h (1 Bft) S-SO 202 0 min 0 W/m 6,9 C 8,4 C 6,5 km/h (2 Bft)
06/12/2011 13:25 8,4 C 90 % 1016,7 hPa 0,0 mm 7,2 km/h (2 Bft) S-SO 202 0 min 0 W/m 6,9 C 7,3 C 7,9 km/h (2 Bft)
06/12/2011 13:30 8,4 C 90 % 1016,7 hPa 0,0 mm 7,6 km/h (2 Bft) S-SO 202 0 min 0 W/m 6,9 C 7,2 C 11,5 km/h (2 Bft)
06/12/2011 13:35 8,5 C 90 % 1017,0 hPa 0,0 mm 7,2 km/h (2 Bft) S-SO 202 0 min 0 W/m 7,0 C 7,4 C 10,4 km/h (2 Bft)
06/12/2011 13:40 8,5 C 90 % 1016,9 hPa 0,0 mm 3,2 km/h (1 Bft) SO 225 0 min 0 W/m 7,0 C 8,5 C 6,5 km/h (2 Bft)
06/12/2011 13:45 8,5 C 89 % 1016,8 hPa 0,0 mm 5,0 km/h (1 Bft) S 180 0 min 0 W/m 6,8 C 8,1 C 8,3 km/h (2 Bft)
06/12/2011 13:50 8,5 C 89 % 1017,0 hPa 0,0 mm 3,6 km/h (1 Bft) S-SO 202 0 min 0 W/m 6,8 C 8,5 C 3,6 km/h (1 Bft)
06/12/2011 13:55 8,6 C 89 % 1017,1 hPa 0,0 mm 8,6 km/h (2 Bft) SO 225 0 min 0 W/m 6,9 C 7,2 C 11,2 km/h (2 Bft)
06/12/2011 14:00 8,6 C 89 % 1016,9 hPa 0,0 mm 2,5 km/h (1 Bft) S-SO 202 0 min 0 W/m 6,9 C 8,6 C 3,6 km/h (1 Bft)
06/12/2011 14:05 8,6 C 89 % 1016,8 hPa 0,0 mm 2,5 km/h (1 Bft) SO 225 0 min 0 W/m 6,9 C 8,6 C 4,3 km/h (1 Bft)
06/12/2011 14:10 8,6 C 89 % 1016,8 hPa 0,0 mm 2,9 km/h (1 Bft) SO 225 0 min 0 W/m 6,9 C 8,6 C 2,9 km/h (1 Bft)
06/12/2011 14:15 8,6 C 89 % 1016,9 hPa 0,0 mm 5,0 km/h (1 Bft) SO 225 0 min 0 W/m 6,9 C 8,2 C 13,0 km/h (3 Bft)
06/12/2011 14:20 8,6 C 89 % 1016,9 hPa 0,0 mm 2,5 km/h (1 Bft) O-SO 247 0 min 0 W/m 6,9 C 8,6 C 6,5 km/h (2 Bft)
06/12/2011 14:25 8,6 C 89 % 1016,9 hPa 0,0 mm 5,4 km/h (2 Bft) S-SO 202 0 min 0 W/m 6,9 C 8,0 C 7,6 km/h (2 Bft)
06/12/2011 14:30 8,5 C 89 % 1016,7 hPa 0,0 mm 3,6 km/h (1 Bft) SO 225 0 min 0 W/m 6,8 C 8,5 C 7,2 km/h (2 Bft)
06/12/2011 14:35 8,5 C 89 % 1016,8 hPa 0,0 mm 5,0 km/h (1 Bft) O-SO 247 0 min 0 W/m 6,8 C 8,1 C 5,0 km/h (1 Bft)
06/12/2011 14:40 8,4 C 89 % 1016,6 hPa 0,0 mm 1,8 km/h (1 Bft) S-SO 202 0 min 0 W/m 6,7 C 8,4 C 4,3 km/h (1 Bft)
06/12/2011 14:45 8,4 C 89 % 1016,6 hPa 0,0 mm 4,7 km/h (1 Bft) O-SO 247 0 min 0 W/m 6,7 C 8,0 C 8,3 km/h (2 Bft)
06/12/2011 14:50 8,4 C 89 % 1016,6 hPa 0,0 mm 2,9 km/h (1 Bft) SO 225 0 min 0 W/m 6,7 C 8,4 C 6,5 km/h (2 Bft)
06/12/2011 14:55 8,4 C 89 % 1016,7 hPa 0,0 mm 0,0 km/h (0 Bft) O-SO 247 0 min 0 W/m 6,7 C 8,4 C 0,0 km/h (0 Bft)
06/12/2011 15:00 8,4 C 89 % 1017,0 hPa 0,0 mm 0,0 km/h (0 Bft) O-SO 247 0 min 0 W/m 6,7 C 8,4 C 0,0 km/h (0 Bft)
06/12/2011 15:05 8,4 C 89 % 1017,0 hPa 0,0 mm 2,9 km/h (1 Bft) SO 225 0 min 0 W/m 6,7 C 8,4 C 8,6 km/h (2 Bft)
06/12/2011 15:10 8,4 C 89 % 1017,0 hPa 0,0 mm 2,5 km/h (1 Bft) O-SO 247 0 min 0 W/m 6,7 C 8,4 C 2,9 km/h (1 Bft)
06/12/2011 15:15 8,4 C 89 % 1017,0 hPa 0,0 mm 2,9 km/h (1 Bft) S-SO 202 0 min 0 W/m 6,7 C 8,4 C 5,8 km/h (2 Bft)
06/12/2011 15:20 8,4 C 89 % 1017,1 hPa 0,0 mm 3,2 km/h (1 Bft) O-SO 247 0 min 0 W/m 6,7 C 8,4 C 3,2 km/h (1 Bft)
06/12/2011 15:25 8,5 C 88 % 1017,2 hPa 0,0 mm 0,4 km/h (0 Bft) O-SO 247 0 min 0 W/m 6,6 C 8,5 C 0,4 km/h (0 Bft)
06/12/2011 15:30 8,4 C 88 % 1017,2 hPa 0,0 mm 2,9 km/h (1 Bft) SO 225 0 min 0 W/m 6,5 C 8,4 C 8,6 km/h (2 Bft)
06/12/2011 15:35 8,5 C 88 % 1017,3 hPa 0,0 mm 1,8 km/h (1 Bft) SO 225 0 min 0 W/m 6,6 C 8,5 C 1,8 km/h (1 Bft)
06/12/2011 15:40 8,4 C 88 % 1017,2 hPa 0,0 mm 5,0 km/h (1 Bft) SO 225 0 min 0 W/m 6,5 C 7,9 C 5,8 km/h (2 Bft)
06/12/2011 15:45 8,5 C 87 % 1017,1 hPa 0,0 mm 6,1 km/h (2 Bft) O-SO 247 0 min 0 W/m 6,5 C 7,7 C 7,9 km/h (2 Bft)
06/12/2011 15:50 8,5 C 88 % 1017,0 hPa 0,0 mm 3,6 km/h (1 Bft) SO 225 0 min 0 W/m 6,6 C 8,5 C 11,9 km/h (2 Bft)
06/12/2011 15:55 8,5 C 87 % 1017,0 hPa 0,0 mm 3,6 km/h (1 Bft) O 270 0 min 0 W/m 6,5 C 8,5 C 7,9 km/h (2 Bft)
06/12/2011 16:00 8,5 C 87 % 1017,2 hPa 0,0 mm 4,0 km/h (1 Bft) O-SO 247 0 min 0 W/m 6,5 C 8,5 C 11,5 km/h (2 Bft)
06/12/2011 16:05 8,5 C 87 % 1017,2 hPa 0,0 mm 1,8 km/h (1 Bft) O-SO 247 0 min 0 W/m 6,5 C 8,5 C 3,2 km/h (1 Bft)
06/12/2011 16:10 8,5 C 88 % 1017,3 hPa 0,0 mm 0,4 km/h (0 Bft) O-SO 247 0 min 0 W/m 6,6 C 8,5 C 2,9 km/h (1 Bft)
06/12/2011 16:15 8,5 C 87 % 1017,3 hPa 0,0 mm 1,4 km/h (1 Bft) O-SO 247 0 min 0 W/m 6,5 C 8,5 C 2,9 km/h (1 Bft)
06/12/2011 16:20 8,4 C 87 % 1017,3 hPa 0,0 mm 2,9 km/h (1 Bft) O 270 0 min 0 W/m 6,4 C 8,4 C 8,3 km/h (2 Bft)
06/12/2011 16:25 8,3 C 88 % 1017,5 hPa 0,0 mm 2,9 km/h (1 Bft) O-SO 247 0 min 0 W/m 6,4 C 8,3 C 6,8 km/h (2 Bft)
06/12/2011 16:30 8,3 C 88 % 1017,6 hPa 0,0 mm 2,5 km/h (1 Bft) O-SO 247 0 min 0 W/m 6,4 C 8,3 C 7,9 km/h (2 Bft)
06/12/2011 16:35 8,3 C 88 % 1017,6 hPa 0,0 mm 3,2 km/h (1 Bft) O 270 0 min 0 W/m 6,4 C 8,3 C 6,8 km/h (2 Bft)
06/12/2011 16:40 8,2 C 88 % 1017,6 hPa 0,0 mm 4,7 km/h (1 Bft) O-SO 247 0 min 0 W/m 6,3 C 7,8 C 7,9 km/h (2 Bft)
06/12/2011 16:45 8,1 C 89 % 1017,7 hPa 0,0 mm 2,2 km/h (1 Bft) O-SO 247 0 min 0 W/m 6,4 C 8,1 C 3,2 km/h (1 Bft)
06/12/2011 16:50 8,1 C 89 % 1017,6 hPa 0,0 mm 1,1 km/h (1 Bft) SO 225 0 min 0 W/m 6,4 C 8,1 C 1,1 km/h (1 Bft)
06/12/2011 16:55 8,1 C 89 % 1017,7 hPa 0,0 mm 3,2 km/h (1 Bft) SO 225 0 min 0 W/m 6,4 C 8,1 C 9,0 km/h (2 Bft)
06/12/2011 17:00 8,0 C 89 % 1017,6 hPa 0,0 mm 5,8 km/h (2 Bft) O-SO 247 0 min 0 W/m 6,3 C 7,2 C 7,6 km/h (2 Bft)
06/12/2011 17:05 7,9 C 90 % 1017,5 hPa 0,0 mm 5,0 km/h (1 Bft) SO 225 0 min 0 W/m 6,4 C 7,4 C 7,6 km/h (2 Bft)
06/12/2011 17:10 7,9 C 90 % 1017,5 hPa 0,0 mm 3,2 km/h (1 Bft) S-SO 202 0 min 0 W/m 6,4 C 7,9 C 7,6 km/h (2 Bft)
06/12/2011 17:15 7,9 C 91 % 1017,5 hPa 0,0 mm 3,2 km/h (1 Bft) SO 225 0 min 0 W/m 6,5 C 7,9 C 4,3 km/h (1 Bft)
06/12/2011 17:20 7,9 C 91 % 1017,8 hPa 0,0 mm 2,9 km/h (1 Bft) SO 225 0 min 0 W/m 6,5 C 7,9 C 6,1 km/h (2 Bft)
06/12/2011 17:25 7,8 C 91 % 1017,7 hPa 0,0 mm 10,1 km/h (2 Bft) O-SO 247 0 min 0 W/m 6,4 C 6,0 C 13,7 km/h (3 Bft)
06/12/2011 17:30 7,8 C 91 % 1017,7 hPa 0,0 mm 6,1 km/h (2 Bft) O-SO 247 0 min 0 W/m 6,4 C 6,9 C 10,4 km/h (2 Bft)
06/12/2011 17:35 7,8 C 91 % 1017,7 hPa 0,0 mm 6,1 km/h (2 Bft) N 360 0 min 0 W/m 6,4 C 6,9 C 6,1 km/h (2 Bft)
06/12/2011 17:40 7,8 C 91 % 1017,6 hPa 0,0 mm 6,8 km/h (2 Bft) SO 225 0 min 0 W/m 6,4 C 6,7 C 7,6 km/h (2 Bft)
06/12/2011 17:45 7,8 C 91 % 1017,8 hPa 0,0 mm 4,7 km/h (1 Bft) SO 225 0 min 0 W/m 6,4 C 7,4 C 9,4 km/h (2 Bft)
06/12/2011 17:50 7,8 C 91 % 1017,8 hPa 0,0 mm 4,0 km/h (1 Bft) SO 225 0 min 0 W/m 6,4 C 7,8 C 5,8 km/h (2 Bft)
06/12/2011 17:55 7,8 C 91 % 1017,9 hPa 0,0 mm 6,8 km/h (2 Bft) SO 225 0 min 0 W/m 6,4 C 6,7 C 13,7 km/h (3 Bft)
06/12/2011 18:00 7,8 C 92 % 1018,0 hPa 0,0 mm 3,2 km/h (1 Bft) SO 225 0 min 0 W/m 6,6 C 7,8 C 6,8 km/h (2 Bft)
06/12/2011 18:05 7,8 C 92 % 1018,1 hPa 0,0 mm 4,7 km/h (1 Bft) SO 225 0 min 0 W/m 6,6 C 7,4 C 6,5 km/h (2 Bft)
06/12/2011 18:10 7,8 C 92 % 1017,9 hPa 0,1 mm 1,1 km/h (1 Bft) O-SO 247 0 min 0 W/m 6,6 C 7,8 C 1,1 km/h (1 Bft)
06/12/2011 18:15 7,8 C 92 % 1018,1 hPa 0,0 mm 1,8 km/h (1 Bft) O-SO 247 0 min 0 W/m 6,6 C 7,8 C 1,8 km/h (1 Bft)
06/12/2011 18:20 7,8 C 92 % 1018,3 hPa 0,0 mm 3,2 km/h (1 Bft) S-SO 202 0 min 0 W/m 6,6 C 7,8 C 6,8 km/h (2 Bft)
06/12/2011 18:25 7,8 C 92 % 1018,4 hPa 0,0 mm 2,9 km/h (1 Bft) O-SO 247 0 min 0 W/m 6,6 C 7,8 C 6,1 km/h (2 Bft)
06/12/2011 18:30 7,8 C 92 % 1018,4 hPa 0,0 mm 4,3 km/h (1 Bft) SO 225 0 min 0 W/m 6,6 C 7,8 C 7,9 km/h (2 Bft)
06/12/2011 18:35 7,8 C 92 % 1018,6 hPa 0,0 mm 3,2 km/h (1 Bft) SO 225 0 min 0 W/m 6,6 C 7,8 C 7,2 km/h (2 Bft)
06/12/2011 18:40 7,8 C 92 % 1018,6 hPa 0,0 mm 3,2 km/h (1 Bft) SO 225 0 min 0 W/m 6,6 C 7,8 C 7,6 km/h (2 Bft)
06/12/2011 18:45 7,8 C 92 % 1018,4 hPa 0,0 mm 5,4 km/h (2 Bft) SO 225 0 min 0 W/m 6,6 C 7,1 C 14,0 km/h (3 Bft)
06/12/2011 18:50 7,7 C 92 % 1018,3 hPa 0,0 mm 6,8 km/h (2 Bft) SO 225 0 min 0 W/m 6,5 C 6,6 C 10,4 km/h (2 Bft)
06/12/2011 18:55 7,7 C 92 % 1018,2 hPa 0,1 mm 6,8 km/h (2 Bft) S-SO 202 0 min 0 W/m 6,5 C 6,6 C 8,3 km/h (2 Bft)
06/12/2011 19:00 7,7 C 92 % 1018,3 hPa 0,0 mm 6,5 km/h (2 Bft) O-SO 247 0 min 0 W/m 6,5 C 6,7 C 8,3 km/h (2 Bft)
06/12/2011 19:05 7,6 C 92 % 1018,3 hPa 0,0 mm 4,7 km/h (1 Bft) SO 225 0 min 0 W/m 6,4 C 7,1 C 6,8 km/h (2 Bft)
06/12/2011 19:10 7,6 C 92 % 1018,3 hPa 0,0 mm 4,3 km/h (1 Bft) O-SO 247 0 min 0 W/m 6,4 C 7,6 C 7,6 km/h (2 Bft)
06/12/2011 19:15 7,6 C 92 % 1018,4 hPa 0,0 mm 5,8 km/h (2 Bft) O-SO 247 0 min 0 W/m 6,4 C 6,8 C 10,8 km/h (2 Bft)
06/12/2011 19:20 7,5 C 92 % 1018,5 hPa 0,0 mm 5,0 km/h (1 Bft) S-SO 202 0 min 0 W/m 6,3 C 6,9 C 9,0 km/h (2 Bft)
06/12/2011 19:25 7,5 C 92 % 1018,5 hPa 0,0 mm 1,1 km/h (1 Bft) O-SO 247 0 min 0 W/m 6,3 C 7,5 C 7,2 km/h (2 Bft)
06/12/2011 19:30 7,4 C 92 % 1018,6 hPa 0,0 mm 3,6 km/h (1 Bft) SO 225 0 min 0 W/m 6,2 C 7,4 C 6,5 km/h (2 Bft)
06/12/2011 19:35 7,4 C 92 % 1018,6 hPa 0,0 mm 4,0 km/h (1 Bft) SO 225 0 min 0 W/m 6,2 C 7,4 C 7,2 km/h (2 Bft)
06/12/2011 19:40 7,4 C 92 % 1018,7 hPa 0,0 mm 7,2 km/h (2 Bft) S 180 0 min 0 W/m 6,2 C 6,1 C 9,4 km/h (2 Bft)
06/12/2011 19:45 7,3 C 92 % 1018,7 hPa 0,0 mm 6,8 km/h (2 Bft) SO 225 0 min 0 W/m 6,1 C 6,1 C 11,5 km/h (2 Bft)
06/12/2011 19:50 7,3 C 92 % 1018,8 hPa 0,0 mm 9,7 km/h (2 Bft) O-SO 247 0 min 0 W/m 6,1 C 5,5 C 10,8 km/h (2 Bft)
06/12/2011 19:55 7,3 C 92 % 1018,9 hPa 0,0 mm 7,2 km/h (2 Bft) SO 225 0 min 0 W/m 6,1 C 6,0 C 13,3 km/h (3 Bft)
06/12/2011 20:00 7,3 C 92 % 1018,9 hPa 0,0 mm 6,8 km/h (2 Bft) S-SO 202 0 min 0 W/m 6,1 C 6,1 C 11,2 km/h (2 Bft)
06/12/2011 20:05 7,3 C 92 % 1018,7 hPa 0,0 mm 7,6 km/h (2 Bft) O-SO 247 0 min 0 W/m 6,1 C 5,9 C 7,6 km/h (2 Bft)
06/12/2011 20:10 7,3 C 92 % 1018,9 hPa 0,0 mm 6,5 km/h (2 Bft) O-SO 247 0 min 0 W/m 6,1 C 6,2 C 9,0 km/h (2 Bft)
06/12/2011 20:15 7,3 C 92 % 1018,8 hPa 0,0 mm 10,4 km/h (2 Bft) S-SO 202 0 min 0 W/m 6,1 C 5,3 C 14,8 km/h (3 Bft)
06/12/2011 20:20 7,3 C 93 % 1018,8 hPa 0,0 mm 9,7 km/h (2 Bft) S-SO 202 0 min 0 W/m 6,2 C 5,5 C 15,1 km/h (3 Bft)
06/12/2011 20:25 7,3 C 92 % 1018,8 hPa 0,0 mm 3,6 km/h (1 Bft) SO 225 0 min 0 W/m 6,1 C 7,3 C 11,9 km/h (2 Bft)
06/12/2011 20:30 7,3 C 93 % 1018,6 hPa 0,0 mm 8,3 km/h (2 Bft) SO 225 0 min 0 W/m 6,2 C 5,8 C 13,0 km/h (3 Bft)
06/12/2011 20:35 7,3 C 93 % 1018,7 hPa 0,0 mm 6,1 km/h (2 Bft) SO 225 0 min 0 W/m 6,2 C 6,3 C 6,8 km/h (2 Bft)
06/12/2011 20:40 7,3 C 93 % 1018,8 hPa 0,0 mm 7,2 km/h (2 Bft) SO 225 0 min 0 W/m 6,2 C 6,0 C 13,0 km/h (3 Bft)
06/12/2011 20:45 7,2 C 93 % 1018,7 hPa 0,0 mm 5,8 km/h (2 Bft) SO 225 0 min 0 W/m 6,1 C 6,3 C 10,1 km/h (2 Bft)
06/12/2011 20:50 7,3 C 93 % 1018,7 hPa 0,0 mm 9,4 km/h (2 Bft) SO 225 0 min 0 W/m 6,2 C 5,5 C 13,0 km/h (3 Bft)
06/12/2011 20:55 7,3 C 93 % 1018,6 hPa 0,0 mm 5,8 km/h (2 Bft) O-SO 247 0 min 0 W/m 6,2 C 6,4 C 11,9 km/h (2 Bft)
06/12/2011 21:00 7,3 C 93 % 1018,7 hPa 0,0 mm 7,2 km/h (2 Bft) SO 225 0 min 0 W/m 6,2 C 6,0 C 14,4 km/h (3 Bft)
06/12/2011 21:05 7,3 C 93 % 1019,0 hPa 0,0 mm 2,2 km/h (1 Bft) O-SO 247 0 min 0 W/m 6,2 C 7,3 C 5,8 km/h (2 Bft)
06/12/2011 21:10 7,3 C 93 % 1018,8 hPa 0,0 mm 2,2 km/h (1 Bft) SO 225 0 min 0 W/m 6,2 C 7,3 C 6,5 km/h (2 Bft)
06/12/2011 21:15 7,4 C 93 % 1019,0 hPa 0,0 mm 6,1 km/h (2 Bft) SO 225 0 min 0 W/m 6,3 C 6,5 C 11,2 km/h (2 Bft)
06/12/2011 21:20 7,4 C 93 % 1019,0 hPa 0,0 mm 3,6 km/h (1 Bft) O-SO 247 0 min 0 W/m 6,3 C 7,4 C 3,6 km/h (1 Bft)
06/12/2011 21:25 7,4 C 93 % 1019,0 hPa 0,0 mm 1,4 km/h (1 Bft) SO 225 0 min 0 W/m 6,3 C 7,4 C 4,0 km/h (1 Bft)
06/12/2011 21:30 7,4 C 93 % 1018,9 hPa 0,0 mm 7,9 km/h (2 Bft) SO 225 0 min 0 W/m 6,3 C 6,0 C 12,2 km/h (2 Bft)
06/12/2011 21:35 7,4 C 92 % 1019,0 hPa 0,0 mm 7,9 km/h (2 Bft) SO 225 0 min 0 W/m 6,2 C 6,0 C 8,6 km/h (2 Bft)
06/12/2011 21:40 7,5 C 92 % 1019,0 hPa 0,0 mm 5,4 km/h (2 Bft) SO 225 0 min 0 W/m 6,3 C 6,8 C 10,1 km/h (2 Bft)
06/12/2011 21:45 7,6 C 92 % 1019,0 hPa 0,0 mm 9,4 km/h (2 Bft) S-SO 202 0 min 0 W/m 6,4 C 5,9 C 11,9 km/h (2 Bft)
06/12/2011 21:50 7,7 C 92 % 1018,9 hPa 0,0 mm 5,0 km/h (1 Bft) O-SO 247 0 min 0 W/m 6,5 C 7,1 C 14,0 km/h (3 Bft)
06/12/2011 21:55 7,7 C 92 % 1019,0 hPa 0,0 mm 4,7 km/h (1 Bft) O-SO 247 0 min 0 W/m 6,5 C 7,3 C 13,7 km/h (3 Bft)
06/12/2011 22:00 7,7 C 91 % 1019,0 hPa 0,0 mm 9,7 km/h (2 Bft) SO 225 0 min 0 W/m 6,3 C 5,9 C 9,7 km/h (2 Bft)
06/12/2011 22:05 7,8 C 91 % 1018,9 hPa 0,0 mm 7,9 km/h (2 Bft) SO 225 0 min 0 W/m 6,4 C 6,4 C 11,2 km/h (2 Bft)
06/12/2011 22:10 7,8 C 92 % 1019,2 hPa 0,0 mm 4,0 km/h (1 Bft) S 180 0 min 0 W/m 6,6 C 7,8 C 7,9 km/h (2 Bft)
06/12/2011 22:15 7,8 C 92 % 1019,3 hPa 0,0 mm 4,0 km/h (1 Bft) SO 225 0 min 0 W/m 6,6 C 7,8 C 6,8 km/h (2 Bft)
06/12/2011 22:20 7,8 C 92 % 1019,3 hPa 0,0 mm 6,8 km/h (2 Bft) O-SO 247 0 min 0 W/m 6,6 C 6,7 C 8,6 km/h (2 Bft)
06/12/2011 22:25 7,8 C 92 % 1019,3 hPa 0,0 mm 1,8 km/h (1 Bft) SO 225 0 min 0 W/m 6,6 C 7,8 C 3,2 km/h (1 Bft)
06/12/2011 22:30 7,7 C 92 % 1019,3 hPa 0,0 mm 6,5 km/h (2 Bft) O-SO 247 0 min 0 W/m 6,5 C 6,7 C 9,0 km/h (2 Bft)
06/12/2011 22:35 7,6 C 93 % 1019,1 hPa 0,0 mm 7,2 km/h (2 Bft) SO 225 0 min 0 W/m 6,5 C 6,4 C 10,4 km/h (2 Bft)
06/12/2011 22:40 7,6 C 93 % 1018,9 hPa 0,0 mm 5,4 km/h (2 Bft) SO 225 0 min 0 W/m 6,5 C 6,9 C 8,3 km/h (2 Bft)
06/12/2011 22:45 7,6 C 93 % 1019,1 hPa 0,0 mm 7,6 km/h (2 Bft) SO 225 0 min 0 W/m 6,5 C 6,3 C 12,6 km/h (3 Bft)
06/12/2011 22:50 7,6 C 93 % 1019,0 hPa 0,0 mm 6,1 km/h (2 Bft) S-SO 202 0 min 0 W/m 6,5 C 6,7 C 10,8 km/h (2 Bft)
06/12/2011 22:55 7,6 C 93 % 1019,0 hPa 0,0 mm 9,4 km/h (2 Bft) SO 225 0 min 0 W/m 6,5 C 5,9 C 14,0 km/h (3 Bft)
06/12/2011 23:00 7,7 C 94 % 1019,0 hPa 0,0 mm 5,0 km/h (1 Bft) SO 225 0 min 0 W/m 6,8 C 7,1 C 5,0 km/h (1 Bft)
06/12/2011 23:05 7,7 C 94 % 1019,1 hPa 0,0 mm 4,7 km/h (1 Bft) SO 225 0 min 0 W/m 6,8 C 7,3 C 8,6 km/h (2 Bft)
06/12/2011 23:10 7,7 C 94 % 1019,2 hPa 0,0 mm 7,6 km/h (2 Bft) SO 225 0 min 0 W/m 6,8 C 6,4 C 10,1 km/h (2 Bft)
06/12/2011 23:15 7,8 C 94 % 1019,3 hPa 0,0 mm 7,9 km/h (2 Bft) SO 225 0 min 0 W/m 6,9 C 6,4 C 13,3 km/h (3 Bft)
06/12/2011 23:20 7,8 C 94 % 1019,2 hPa 0,0 mm 8,3 km/h (2 Bft) SO 225 0 min 0 W/m 6,9 C 6,4 C 15,5 km/h (3 Bft)
06/12/2011 23:25 7,8 C 94 % 1019,2 hPa 0,0 mm 6,8 km/h (2 Bft) O-SO 247 0 min 0 W/m 6,9 C 6,7 C 6,8 km/h (2 Bft)
06/12/2011 23:30 7,8 C 94 % 1019,2 hPa 0,0 mm 6,5 km/h (2 Bft) SO 225 0 min 0 W/m 6,9 C 6,8 C 15,1 km/h (3 Bft)
06/12/2011 23:35 7,8 C 94 % 1019,2 hPa 0,0 mm 7,9 km/h (2 Bft) SO 225 0 min 0 W/m 6,9 C 6,4 C 7,9 km/h (2 Bft)
06/12/2011 23:40 7,8 C 94 % 1019,3 hPa 0,0 mm 4,3 km/h (1 Bft) SO 225 0 min 0 W/m 6,9 C 7,8 C 4,3 km/h (1 Bft)
06/12/2011 23:45 7,8 C 94 % 1019,3 hPa 0,0 mm 7,6 km/h (2 Bft) SO 225 0 min 0 W/m 6,9 C 6,5 C 7,6 km/h (2 Bft)
06/12/2011 23:50 7,8 C 94 % 1019,4 hPa 0,0 mm 3,6 km/h (1 Bft) SO 225 0 min 0 W/m 6,9 C 7,8 C 3,6 km/h (1 Bft)
06/12/2011 23:55 7,8 C 94 % 1019,7 hPa 0,0 mm 5,0 km/h (1 Bft) S-SO 202 0 min 0 W/m 6,9 C 7,3 C 6,1 km/h (2 Bft)
_ Min-Heure 06:55 16:20 02:30 - 15:00 - - - - 06:00 09:15 15:00
Minimum _ 6,2 C 87 % 1014,9 hPa - 0,0 km/h (0 Bft) - - - - 5,4 C 4,3 C 0,0 km/h (0 Bft)
_ Max-Heure 14:25 10:45 23:55 18:55 10:05 - - 23:55 23:55 13:05 14:20 10:25
Maximum _ 8,6 C 95 % 1019,7 hPa 0,1 mm 11,9 km/h
SO (2 Bft)
- - 0 min 0 W/m 7,0 C 8,6 C 15,8 km/h
O-SO (3 Bft)
Moyenne _ 7,3 C 93 % 1016,9 hPa #0,3 mm 5,0 km/h (1 Bft) SO - #0 min. 0 W/m 6,2 C 6,7 C 8,0 km/h (2 Bft)
Saint Bonnet de Bellac- Haute Vienne - France